Hourly Data Report for October 11, 2017

All times are specified in Local Standard Time (LST). Add 1 hour to adjust for Daylight Saving Time where and when it is observed.

PENTICTON A
BRITISH COLUMBIA

49°27'45.000" N
119°36'08.000" W
344.40 m
1126146
71889
YYF

Download Data

Hourly Data (October 2017)
Hourly Data Report for October 11, 2017
Temp Definition
°C
Dew Point Temp Definition
°C
Rel Hum Definition
%
Wind Dir Definition
10's deg

Wind Spd Definition
km/h
Visibility Definition
km
Stn Press Definition
kPa
Hmdx Definition


Wind Chill Definition


Weather Definition


TIME
00:00 Legend Double Dagger -0.2 -5.1 69 36 1 20.9 96.98   -1 LegendNANA
01:00 Legend Double Dagger 0.2 -5.0 68 36 2 24.1 97.03     Mainly Clear
02:00 Legend Double Dagger -0.2 -5.4 68 36 5 24.1 97.04   -2 LegendNANA
03:00 Legend Double Dagger -1.0 -5.5 72 1 5 24.1 97.03   -3 LegendNANA
04:00 Legend Double Dagger -1.0 -5.8 71 34 5 24.1 97.05   -3 Mostly Cloudy
05:00 Legend Double Dagger 0.4 -4.7 69 3 3 24.1 97.11     LegendNANA
06:00 Legend Double Dagger 0.0 -4.1 74 36 3 24.1 97.14   -1 LegendNANA
07:00 Legend Double Dagger -1.5 -5.7 73 1 5 24.1 97.18   -3 Mainly Clear
08:00 Legend Double Dagger 1.8 -3.0 71 2 6 24.1 97.24     LegendNANA
09:00 Legend Double Dagger 7.2 -0.3 59 36 1 24.1 97.28     LegendNANA
10:00 Legend Double Dagger 9.2 -4.1 39 34 6 24.1 97.26     Mostly Cloudy
11:00 Legend Double Dagger 10.3 -2.8 40 20 5 24.1 97.27     LegendNANA
12:00 Legend Double Dagger 10.7 -2.9 39 1 10 24.1 97.28     LegendNANA
13:00 Legend Double Dagger 12.6 -2.2 36 1 8 24.1 97.26     Mostly Cloudy
14:00 Legend Double Dagger 11.9 -2.7 36 1 11 24.1 97.25     LegendNANA
15:00 Legend Double Dagger 10.9 -1.8 41 3 5 24.1 97.26     LegendNANA
16:00 Legend Double Dagger 10.0 -1.0 46 19 3 24.1 97.27     Mostly Cloudy
17:00 Legend Double Dagger 9.2 -0.9 49 19 7 24.1 97.30     LegendNANA
18:00 Legend Double Dagger 9.7 -1.1 47 18 11 24.1 97.38     LegendNANA
19:00 Legend Double Dagger 8.7 -0.8 51 18 14 24.1 97.41     Mostly Cloudy
20:00 Legend Double Dagger 4.4 -1.8 64 36 8 24.1 97.45     LegendNANA
21:00 Legend Double Dagger 3.3 -2.1 68 32 4 24.1 97.50     LegendNANA
22:00 Legend Double Dagger 2.1 -2.6 71 32 5 24.1 97.51     Mainly Clear
23:00 Legend Double Dagger 2.3 -2.1 73 33 9 24.1 97.53     LegendNANA

Notes on Data Quality.

Legend

  • E = Estimated
  • M = Missing
  • NA = Not Available
  • ‡ = Partner data that is not subject to review by the National Climate Archives
Date modified: